Flag for Brazil Weather past 2 weeks in Boa Vista, Roraima, Brazil

Now
75 °F

Partly sunny.


Feels Like: 74 °F
Forecast: 76 / 90 °F
Wind: 2 mph from Northeast

Location: Boa Vista Aeropor-To

Current Time: Aug 22, 2014 at 7:45:29 AM

Latest Report: Aug 22, 2014 at 7:00 AM


Visibility: N/A

Pressure: 29.95 "Hg

Humidity: 94%

Dew point: 73 °F

Location of Boa VistaLocation

Historic Weather in Boa Vista — Graph

°F

Boa Vista temperature yesterday

Maximum temperature yesterday: 82 °F (at 4:00 PM)
Minimum temperature yesterday: 73 °F (at 11:00 AM)
Average temperature yesterday: 78 °F

Past Weeks' High & Low Weather Summary

 TemperatureHumidityPressure
High93 °F (Aug 20, 2:00 PM)100% (Aug 11, 11:00 AM)30.04 "Hg (Aug 11, 11:00 AM)
Low36 °F (Aug 12, 4:00 PM)24% (Aug 17, 6:00 PM)29.80 "Hg (Aug 10, 5:00 PM)
Average80 °F79%29.93 "Hg
* Reported Aug 7 7:00 AM — Aug 22 7:00 AM, Boa Vista, Weather by CustomWeather, © 2014

Note: Actual official high and low records may vary slightly from our data, if they occured in-between our weather recording intervals... More about our weather records

Advertising

Boa Vista weather history for previous 24 hours

 ConditionsComfort  
Time TempWeatherWind HumidityBarometerVisibility
7:00 AM
Aug 22
75 °FPartly sunny.2 mph94%29.95 "HgN/A
6:00 AM75 °FPartly sunny.No wind94%29.92 "HgN/A
5:00 AM75 °FPassing clouds.No wind94%29.92 "HgN/A
4:00 AM77 °FPassing clouds.No wind89%29.92 "HgN/A
3:00 AM77 °FPassing clouds.No wind89%29.92 "HgN/A
2:00 AM77 °FPassing clouds.No wind89%29.92 "HgN/A
1:00 AM77 °FPassing clouds.No wind89%29.95 "HgN/A
12:00 AM77 °FPassing clouds.No wind89%29.95 "HgN/A
11:00 PM
Aug 21
77 °FPassing clouds.No wind89%29.95 "HgN/A
10:00 PM79 °FPassing clouds.No wind84%29.95 "HgN/A
9:00 PM79 °FPassing clouds.No wind84%29.95 "HgN/A
8:00 PM81 °FPassing clouds.No wind79%29.92 "HgN/A
7:00 PM81 °FPassing clouds.No wind74%29.92 "HgN/A
6:00 PM82 °FBroken clouds.No wind70%29.89 "HgN/A
5:00 PM82 °FBroken clouds.No wind70%29.89 "HgN/A
4:00 PM82 °FBroken clouds.3 mph70%29.86 "HgN/A
3:00 PM79 °FBroken clouds.No wind79%29.89 "HgN/A
2:00 PM77 °FBroken clouds.8 mph83%29.92 "Hg6 mi
1:00 PM77 °FBroken clouds.6 mph89%29.95 "Hg5 mi
12:00 PM75 °FLight rain. Broken clouds.3 mph89%N/A4 mi
11:00 AM73 °FLight rain. Broken clouds.3 mph89%N/A3 mi
10:00 AM75 °FThunderstorms. Partly sunny.2 mph89%N/A3 mi
9:00 AM79 °FPartly sunny.2 mph84%30.01 "Hg5 mi
8:00 AM77 °FBroken clouds.No wind83%29.98 "Hg5 mi
7:00 AM77 °FFog.No wind89%29.95 "Hg3 mi
Weather by CustomWeather, © 2014

See weather overviewHow to use our weather pages